SCP
4 4 4 4 4 4 4 5 5 5 4 3 3 3 4 4 6 8 9 9 7 5 3 2 1 1 1 1 1 1 1 1 1 1 0 0 0 0 0 0 0 0 1
4 4 4 4 4 4 5 6 6 5 4 4 3 4 4 5 6 8 9 8 7 5 3 2 1 1 1 1 1 1 1 1 1 1 0 0 0 0 0 0 0 1 1
5 5 4 4 4 4 5 7 7 5 4 4 4 4 4 5 7 8 8 7 7 5 3 2 2 1 1 1 1 1 1 1 1 1 0 0 0 0 1 1 1 1 1
7 6 5 5 5 5 6 7 7 5 4 4 4 4 4 4 5 6 6 7 7 6 4 3 2 2 2 1 1 1 1 1 1 1 1 1 0 1 1 1 1 1 0
9 8 6 5 5 5 5 6 6 6 6 5 5 5 4 4 5 5 6 7 7 6 5 4 3 3 2 1 1 2 2 4 4 3 1 1 1 1 1 2 2 1 1
12 11 9 7 6 5 5 6 6 7 7 7 6 6 5 5 5 5 6 6 6 6 5 5 4 3 2 2 1 1 2 4 7 5 2 2 2 1 1 2 2 2 1
14 14 13 10 8 6 6 7 8 9 9 9 8 7 7 7 6 5 5 6 6 6 5 5 3 3 2 2 2 1 2 3 4 4 3 3 2 2 1 1 2 2 2
12 13 14 13 10 8 8 9 11 13 13 11 9 8 9 8 6 4 5 6 6 5 4 3 3 2 2 2 2 2 2 2 2 2 2 2 2 1 1 1 1 1 1
10 11 13 14 12 11 11 11 12 15 16 13 10 10 11 9 5 3 4 5 5 4 3 2 2 1 1 1 1 2 2 2 1 1 1 1 1 0 0 0 1 1 1
8 10 11 13 13 13 12 12 12 14 14 11 10 12 13 10 5 3 3 4 4 4 3 2 1 1 1 1 1 1 1 1 1 0 0 0 0 0 0 0 0 0 0
8 9 10 12 13 14 14 13 13 13 12 10 11 14 13 9 4 2 2 3 4 3 3 2 1 1 0 0 1 1 1 1 1 0 0 0 0 0 0 0 0 0 0
9 9 10 12 14 15 16 15 15 14 12 12 13 14 11 7 4 2 1 2 2 2 2 2 1 1 0 0 0 0 0 0 0 0 0 0 0 0 0 0 0 0 0
11 10 11 12 15 17 17 17 16 15 13 13 14 12 9 7 5 3 1 1 1 1 1 1 1 1 0 0 0 0 0 0 0 1 1 1 1 0 0 0 0 0 0
13 12 12 14 16 17 17 17 17 15 13 13 13 11 9 8 8 6 3 2 1 1 1 1 1 0 0 0 0 0 1 1 1 1 1 1 1 1 0 0 0 0 0
13 12 12 12 14 16 16 16 15 14 12 12 13 11 9 9 9 7 4 3 3 2 2 2 1 1 1 1 1 1 1 1 1 1 1 1 1 1 0 0 0 0 0
10 9 9 9 11 13 14 12 11 9 9 9 10 8 7 7 6 4 3 3 2 2 2 2 2 2 1 1 1 1 1 1 1 1 1 1 1 1 1 1 0 0 0
8 8 8 8 9 10 10 9 8 6 5 5 4 4 4 3 2 1 1 1 1 1 1 2 3 2 2 2 2 1 1 1 1 1 1 1 1 1 1 1 1 0 0
7 7 7 7 7 7 7 8 8 7 6 4 3 2 1 1 1 0 0 0 0 0 1 2 3 3 3 2 2 1 1 1 1 1 1 1 1 1 1 1 1 1 0
6 6 5 5 4 4 4 6 9 10 10 8 6 3 2 1 0 0 0 0 1 1 1 2 2 3 3 2 2 2 1 1 1 1 1 1 1 1 1 1 1 1 0
3 3 3 3 3 3 3 5 7 9 10 10 8 6 3 2 1 1 0 1 1 1 1 1 2 2 2 2 2 2 2 2 1 1 1 1 1 1 2 2 1 1 1
2 2 2 2 2 2 3 3 5 7 8 9 8 7 5 3 3 2 1 1 1 1 1 1 1 2 2 2 2 2 2 2 2 2 2 1 1 2 2 2 2 1 1
2 2 2 2 2 2 2 2 2 4 6 7 7 7 6 5 4 3 2 2 2 1 1 1 1 1 2 2 2 2 2 2 2 2 2 1 1 2 2 2 2 1 0
2 2 2 2 2 1 2 2 2 2 4 5 6 6 6 5 4 4 3 3 2 2 2 1 1 1 1 1 1 2 2 2 2 2 1 1 1 1 2 2 2 1 0
2 2 2 2 2 1 1 2 2 2 3 4 5 5 5 5 4 4 3 3 3 3 2 2 1 1 1 1 1 1 1 2 1 1 1 1 1 1 2 2 1 1 0
1 2 2 2 2 1 1 2 2 2 2 2 3 4 4 4 4 4 4 4 3 3 3 2 1 1 1 0 0 1 1 1 1 1 1 1 1 1 1 1 1 0 0
1 1 2 2 2 2 1 1 2 2 2 2 2 3 4 3 3 3 4 4 3 3 2 2 1 1 0 0 0 0 0 0 0 0 1 1 1 1 1 1 1 0 0
Wind_Speed
7 7 6 6 6 5 5 5 5 4 5 5 5 5 5 5 4 4 4 4 4 3 3 3 2 2 1 1 1 1 1 2 2 2 1 1 0 0 1 1 0 0 0
8 7 7 6 6 6 6 6 5 5 5 5 5 5 5 5 5 5 5 5 5 4 4 3 3 2 2 1 1 1 1 2 2 2 1 1 1 1 1 1 0 0 0
7 7 6 6 6 7 6 5 4 4 4 3 4 5 5 5 5 5 5 5 5 5 4 4 3 3 2 1 1 1 1 1 1 2 1 1 0 0 0 1 0 1 1
6 7 7 7 7 7 6 5 5 4 4 4 4 4 4 4 5 5 5 5 4 4 4 4 4 4 4 3 1 1 1 1 1 1 1 0 1 1 0 0 0 1 1
6 6 7 6 6 5 5 5 4 4 5 4 4 4 4 4 4 4 4 5 5 4 3 3 3 4 4 3 2 2 2 1 1 1 1 0 1 0 1 1 1 1 1
6 6 6 5 5 5 5 5 4 4 4 4 4 5 5 4 5 7 6 5 5 5 4 3 2 2 3 3 3 3 4 3 3 2 2 2 2 2 1 1 1 1 1
4 4 4 4 4 5 5 4 4 4 4 4 4 4 4 4 6 7 8 5 5 5 5 4 3 2 3 2 2 2 1 2 4 4 3 3 3 3 2 2 2 2 2
3 3 3 3 4 4 4 5 5 4 4 4 4 4 4 4 5 6 7 5 4 5 5 5 4 3 3 4 3 1 1 1 2 3 3 3 3 3 3 3 3 1 1
4 4 4 5 4 4 5 6 5 5 4 4 3 4 4 4 5 6 6 4 4 4 4 5 5 4 5 5 4 2 1 1 0 2 2 2 2 2 2 2 1 1 0
4 4 4 4 4 5 6 5 4 4 4 3 4 4 4 4 5 6 7 4 4 3 3 3 5 6 6 7 5 4 3 2 1 0 0 1 1 1 1 3 3 2 1
3 3 3 3 3 3 3 3 2 2 3 3 4 4 5 5 5 7 8 5 5 4 4 3 3 6 6 7 6 4 5 4 2 2 1 0 1 1 1 1 2 3 3
2 2 2 2 2 2 2 3 2 3 3 4 4 4 4 4 5 5 7 6 5 4 4 3 3 6 6 6 5 4 4 3 2 1 1 1 1 1 2 2 2 2 2
1 2 2 2 2 2 3 4 3 3 4 4 4 5 4 3 4 5 7 7 7 5 4 5 5 6 6 5 5 5 4 2 2 2 2 3 3 2 1 0 1 0 1
1 2 2 2 2 2 2 3 3 3 4 4 4 4 4 3 4 4 4 4 5 4 3 3 5 5 4 3 3 3 3 3 3 3 3 2 1 0 1 1 1 1 0
1 2 2 2 2 2 2 3 3 4 5 5 5 5 5 5 6 7 6 5 5 5 4 2 1 2 2 2 2 2 2 2 2 2 2 1 1 1 1 1 1 1 1
2 2 2 2 2 2 2 2 2 3 4 5 6 6 5 6 7 7 8 7 7 8 6 4 4 4 4 4 4 3 3 3 3 2 2 2 2 2 2 1 1 2 2
3 3 2 2 2 2 3 3 2 2 2 3 4 6 5 5 6 7 7 6 7 8 4 4 4 4 4 4 4 3 3 3 3 3 3 2 2 2 2 2 2 2 2
3 3 3 3 2 3 3 3 3 2 2 2 3 3 4 5 6 6 5 5 4 4 4 5 4 4 4 4 4 4 3 2 2 3 2 2 2 3 3 3 3 3 3
4 3 3 2 2 2 2 2 2 2 2 2 1 1 2 3 3 4 5 4 4 4 4 4 4 4 4 4 4 4 4 3 3 3 3 3 3 3 3 3 3 3 3
4 5 4 2 2 2 2 2 2 3 3 3 3 2 2 2 2 3 3 4 4 4 4 3 3 4 4 4 4 3 3 3 3 3 3 3 3 3 3 3 3 3 3
3 3 4 2 3 3 2 3 3 3 3 3 3 4 6 5 4 4 4 4 4 4 4 3 3 3 3 3 3 3 4 3 3 3 3 3 3 3 3 3 3 3 3
2 2 2 3 3 2 2 3 3 3 4 4 3 3 6 4 3 3 3 3 3 3 3 4 3 3 4 4 4 4 4 3 3 2 2 2 2 2 2 2 2 2 2
2 2 2 2 2 3 3 3 3 3 3 4 4 3 4 4 4 3 3 3 3 3 3 3 3 3 2 3 3 4 4 4 3 3 3 2 2 1 1 2 2 2 2
2 2 3 3 3 3 3 3 3 3 3 3 4 4 4 4 3 4 3 3 3 3 3 3 4 5 5 3 2 2 2 3 3 3 4 3 2 1 1 2 2 3 2
2 2 3 3 3 3 3 3 3 3 3 3 3 3 3 4 4 4 4 3 4 4 4 4 3 4 6 5 4 3 3 3 3 2 2 2 3 2 2 2 2 2 2
2 2 2 1 1 2 2 2 2 2 3 2 3 3 3 3 4 4 4 4 4 4 4 4 5 5 5 4 4 4 4 3 3 3 3 2 3 2 2 2 2 2 2
Wind_Direction
185 186 189 190 191 192 199 210 216 220 215 211 206 200 199 199 195 190 198 187 185 197 199 190 205 195 195 205 181 174 178 163 194 256 254 256 152 256 323 303 298 291 296
186 187 193 194 189 196 205 211 211 218 216 207 201 198 201 200 197 193 201 193 186 189 193 187 202 192 190 200 186 194 196 177 172 222 268 252 227 234 231 224 245 28 294
180 184 194 197 199 205 209 207 204 209 212 205 200 203 204 200 200 201 197 192 189 191 191 192 202 186 198 208 198 202 219 188 162 175 239 262 273 313 342 340 72 17 4
173 184 195 203 208 209 206 201 204 202 199 197 204 206 203 201 200 200 194 189 187 190 189 191 195 189 192 195 198 210 203 159 144 155 187 269 288 295 131 313 339 320 312
177 188 201 206 207 203 200 202 201 201 205 201 198 202 204 202 206 197 192 188 181 183 186 190 193 187 182 183 186 186 169 164 157 163 188 205 263 280 244 234 215 297 299
186 198 200 197 198 199 202 200 199 206 208 195 199 203 209 219 217 200 190 188 182 181 187 193 192 179 173 171 175 171 165 168 177 176 197 204 230 226 223 201 177 133 280
187 197 198 195 200 208 206 201 207 212 207 206 210 206 210 224 216 203 196 182 183 184 183 182 188 175 162 173 183 176 198 185 179 176 192 216 213 217 200 204 200 194 217
174 194 201 196 203 208 204 206 211 211 212 214 214 210 209 223 209 198 193 187 184 184 184 185 179 182 189 178 170 172 219 243 205 187 192 210 214 214 201 200 202 199 290
186 201 210 204 204 206 208 211 208 205 213 210 204 207 209 225 209 196 186 184 186 191 189 186 182 187 194 173 159 174 204 290 262 165 189 207 222 222 177 126 120 120 264
215 218 219 212 211 216 219 219 212 201 204 199 208 212 210 221 209 193 183 185 188 190 188 188 188 191 186 176 175 174 190 221 197 156 30 336 303 295 167 164 167 156 166
226 225 221 220 221 215 219 219 207 206 197 197 206 209 215 220 208 188 178 187 189 186 192 201 203 193 191 183 180 188 200 192 183 183 192 268 323 313 274 210 186 169 169
233 229 233 228 232 227 209 220 199 187 201 208 209 209 214 216 211 195 181 187 182 188 201 202 201 192 192 187 187 192 179 158 146 157 190 235 242 252 255 239 219 204 194
240 246 249 248 238 220 205 211 209 201 207 214 210 213 217 211 207 191 184 189 187 191 204 197 195 193 188 188 189 178 164 159 160 191 224 239 239 238 227 256 324 25 13
245 265 258 240 241 236 224 217 211 211 216 219 214 215 217 213 208 201 197 199 200 193 193 183 176 174 179 187 189 194 189 186 186 206 227 246 254 256 215 183 169 142 65
258 257 259 252 238 238 243 238 228 228 217 213 217 212 208 217 218 200 188 194 197 193 169 153 158 171 187 202 207 209 202 192 204 210 207 220 222 220 238 212 162 142 155
250 259 255 257 256 238 239 274 292 248 232 224 222 217 221 215 197 194 198 196 185 169 156 176 195 198 200 201 201 206 206 207 212 203 198 201 208 212 219 214 176 176 194
239 251 256 248 243 233 221 221 243 302 291 259 234 217 215 211 202 197 193 184 171 158 164 189 198 202 202 196 196 198 209 215 202 194 199 206 207 208 199 205 206 200 212
241 244 242 240 239 237 232 225 212 210 248 288 286 245 220 204 198 194 171 141 150 170 192 198 200 200 198 195 196 201 206 208 196 195 202 211 208 202 203 211 211 209 209
241 240 235 233 230 231 229 221 205 198 204 226 252 272 220 190 179 179 160 166 182 194 200 201 201 198 195 193 194 193 191 192 189 189 200 211 212 206 212 216 212 210 201
247 242 238 224 223 222 218 207 204 199 200 202 203 201 163 141 154 175 186 187 187 196 193 191 194 194 191 190 189 183 182 183 186 197 207 214 217 208 211 215 211 205 208
239 231 235 233 227 222 217 209 202 200 205 207 205 195 180 180 184 190 193 187 189 196 193 184 182 183 182 180 178 174 176 189 200 204 210 218 215 212 213 211 209 204 198
233 224 223 228 234 235 229 215 203 204 207 205 200 189 186 183 183 190 196 192 192 192 186 175 178 186 187 181 179 177 175 180 196 203 206 211 214 213 204 197 198 196 185
222 228 236 243 245 236 231 221 209 206 204 201 189 185 186 191 191 191 196 195 183 179 177 167 168 174 177 172 172 170 173 188 199 196 193 199 197 192 181 180 177 171 179
219 221 229 237 234 218 208 208 211 210 200 194 185 184 189 197 194 190 188 180 174 172 169 166 167 168 163 156 155 163 178 188 183 184 181 184 191 187 174 178 182 176 178
229 232 232 227 218 213 208 208 213 212 206 199 190 186 192 193 188 185 180 174 171 171 172 171 167 164 161 160 159 168 178 172 169 165 169 176 183 186 180 178 180 174 172
235 241 236 216 206 206 206 205 208 206 205 197 186 185 188 187 187 182 176 173 172 172 173 173 169 165 161 163 165 164 165 165 166 166 167 173 177 182 176 174 173 172 169